Weather History for KCRP - October, 2013

Change the Weather History Date:

Wednesday, October 2, 2013

  Actual Average Record
Temperature  
Mean Temperature 86 °F 78 °F  
Max Temperature 93 °F 87 °F 97 °F (1977)
Min Temperature 78 °F 68 °F 56 °F (1992)
Degree Days  
Heating Degree Days 0 0  
Month to date heating degree days 0 0  
Since 1 July heating degree days 0 0  
Cooling Degree Days 21 13  
Month to date cooling degree days 42 26  
Year to date cooling degree days 3637 3069  
Growing Degree Days 36 (Base 50)    
Moisture  
Dew Point 74 °F    
Average Humidity 69    
Maximum Humidity 85    
Minimum Humidity 52    
Precipitation  
Precipitation 0.02 in 0.13 in 1.29 in (1887)
Month to date precipitation 0.24 0.26  
Year to date precipitation 17.56 24.58  
Snow  
Snow 0.00 in - - ()
Month to date snowfall 0.0  
Since 1 July snowfall 0.0  
Since 1 September snowfall 0.0  
Snow Depth 0.00 in    
Sea Level Pressure  
Sea Level Pressure 29.88 in    
Wind  
Wind Speed 8 mph (SE)    
Max Wind Speed 18 mph    
Max Gust Speed 24 mph    
Visibility 10 miles    
Events      
T = Trace of Precipitation, MM = Missing Value Source: NWS Daily Summary

Daily Weather History Graph

Daily Weather History Graph

Search for Another Location

Airport or City:

Trip Planner

Search our weather history database for the weather conditions in past years. The results will help you decide how hot, cold, wet, or windy it might be!

Date:

Astronomy

Oct. 02, 2013 Rise Set
Actual Time 7:23 AM CDT 7:14 PM CDT
Civil Twilight 7:00 AM CDT 7:38 PM CDT
Nautical Twilight 6:32 AM CDT 8:05 PM CDT
Astronomical Twilight 6:05 AM CDT 8:32 PM CDT
Moon 5:07 AM CDT (10/2) 5:44 PM CDT (10/2)
Length of Visible Light 12h 37m
Length of Day
11h 51m
Waning Crescent, 6% of the Moon is Illuminated
Oct 2
Waning Crescent
Oct 4
New
Oct 11
First Quarter
Oct 18
Full
Oct 26
Last Quarter

Hourly Weather History & Observations

Time (CDT) Temp. Heat Index Dew Point Humidity Pressure Visibility Wind Dir Wind Speed Gust Speed Precip Events Conditions
12:51 AM 81.0 °F 86.7 °F 75.0 °F 82% 29.89 in 10.0 mi SE 8.1 mph - N/A   Partly Cloudy
1:51 AM 80.1 °F 84.5 °F 73.9 °F 81% 29.89 in 10.0 mi SSE 6.9 mph - N/A   Partly Cloudy
2:51 AM 79.0 °F - 73.9 °F 84% 29.88 in 10.0 mi SE 5.8 mph - N/A   Partly Cloudy
3:51 AM 79.0 °F - 73.9 °F 84% 29.87 in 10.0 mi SSE 4.6 mph - N/A   Scattered Clouds
4:51 AM 79.0 °F - 73.9 °F 84% 29.87 in 10.0 mi SSE 3.5 mph - N/A   Mostly Cloudy
5:10 AM 78.8 °F - 73.4 °F 83% 29.88 in 10.0 mi Calm Calm - N/A   Scattered Clouds
5:51 AM 79.0 °F - 73.9 °F 84% 29.88 in 10.0 mi Calm Calm - N/A   Partly Cloudy
6:51 AM 78.1 °F - 73.0 °F 84% 29.89 in 10.0 mi SSE 3.5 mph - N/A   Partly Cloudy
7:51 AM 78.3 °F - 73.9 °F 87% 29.90 in 10.0 mi ESE 4.6 mph - N/A   Partly Cloudy
8:51 AM 81.0 °F 86.9 °F 75.2 °F 83% 29.91 in 10.0 mi Calm Calm - N/A   Scattered Clouds
9:51 AM 84.9 °F 92.1 °F 73.9 °F 69% 29.92 in 10.0 mi SSW 11.5 mph - N/A   Scattered Clouds
10:51 AM 89.1 °F 96.0 °F 72.0 °F 57% 29.93 in 10.0 mi South 10.4 mph - N/A   Scattered Clouds
11:51 AM 91.0 °F 97.6 °F 71.1 °F 52% 29.92 in 10.0 mi South 9.2 mph - N/A   Scattered Clouds
12:51 PM 90.0 °F 97.9 °F 73.0 °F 57% 29.91 in 10.0 mi ESE 5.8 mph - N/A   Scattered Clouds
1:51 PM 88.0 °F 96.5 °F 73.9 °F 63% 29.88 in 10.0 mi SE 10.4 mph - N/A   Scattered Clouds
2:51 PM 89.1 °F 98.0 °F 73.9 °F 61% 29.86 in 10.0 mi SE 11.5 mph - 0.02 in   Mostly Cloudy
3:51 PM 91.0 °F 98.2 °F 72.0 °F 53% 29.85 in 10.0 mi ESE 13.8 mph - N/A   Scattered Clouds
4:51 PM 90.0 °F 97.9 °F 73.0 °F 57% 29.85 in 10.0 mi SE 15.0 mph - N/A   Scattered Clouds
5:51 PM 88.0 °F 96.5 °F 73.9 °F 63% 29.84 in 10.0 mi ESE 18.4 mph - N/A   Partly Cloudy
6:51 PM 84.9 °F 92.1 °F 73.9 °F 69% 29.84 in 10.0 mi SE 18.4 mph - N/A   Partly Cloudy
7:51 PM 82.9 °F 90.2 °F 75.0 °F 77% 29.86 in 10.0 mi SE 10.4 mph - N/A   Partly Cloudy
8:51 PM 82.0 °F 88.6 °F 75.0 °F 79% 29.88 in 10.0 mi SE 10.4 mph - N/A   Partly Cloudy
9:51 PM 81.0 °F 86.7 °F 75.0 °F 82% 29.90 in 10.0 mi SSE 9.2 mph - N/A   Partly Cloudy
10:51 PM 80.1 °F 85.1 °F 75.0 °F 85% 29.91 in 10.0 mi SSE 5.8 mph - N/A   Partly Cloudy
11:51 PM 80.1 °F 85.1 °F 75.0 °F 85% 29.91 in 10.0 mi SE 6.9 mph - N/A   Partly Cloudy